Flag for Germany Weather past 2 weeks in Wertheim, Baden-Württemberg, Germany

Now
48 °F

Partly sunny.


Feels Like: 47 °F
Forecast: 48 / 51 °F
Wind: 3 mph from Northwest

Location: Wuerzburg

Current Time: Mar 28, 2015 at 12:25:09 PM

Latest Report: Mar 28, 2015 at 12:00 PM


Visibility: 28 mi

Pressure: 30.18 "Hg

Humidity: 47%

Dew point: 28 °F

Location of WertheimLocation

Historic Weather in Wertheim — Graph

°F

Wertheim temperature yesterday

Maximum temperature yesterday: 48 °F (at 1:00 PM)
Minimum temperature yesterday: 40 °F (at 12:00 AM)
Average temperature yesterday: 44 °F

Past Weeks' High & Low Weather Summary

 TemperatureHumidityPressure
High66 °F (Mar 25, 4:00 PM)100% (Mar 24, 7:00 AM)30.32 "Hg (Mar 24, 7:00 AM)
Low30 °F (Mar 24, 7:00 AM)26% (Mar 20, 3:00 PM)29.57 "Hg (Mar 25, 5:00 PM)
Average44 °F70%30.11 "Hg
* Reported Mar 13 11:00 AM — Mar 28 11:00 AM, Wertheim, Weather by CustomWeather, © 2015

Note: Actual official high and low records may vary slightly from our data, if they occured in-between our weather recording intervals... More about our weather records

Advertising

Wertheim weather history for previous 24 hours

 ConditionsComfort  
Time TempWeatherWind HumidityBarometerVisibility
11:00 AM
Sat, Mar 28
46 °FPartly sunny.6 mph47%30.22 "Hg19 mi
10:00 AM45 °FOvercast.3 mph61%30.24 "Hg22 mi
9:00 AM43 °FPartly sunny.N/A68%30.25 "Hg25 mi
8:00 AM40 °FPartly sunny.2 mph74%30.26 "Hg22 mi
7:00 AM38 °FPartly sunny.2 mph75%30.27 "Hg19 mi
6:00 AM38 °FOvercast.2 mph75%30.27 "Hg19 mi
4:00 AM42 °FOvercast.N/A63%30.26 "Hg18 mi
3:00 AM42 °FOvercast.1 mph64%30.26 "Hg22 mi
2:00 AM42 °FOvercast.2 mph66%30.27 "Hg25 mi
1:00 AM43 °FOvercast.1 mph63%30.26 "Hg25 mi
12:00 AM43 °FOvercast.1 mph61%30.25 "Hg28 mi
11:00 PM
Fri, Mar 27
44 °FOvercast.3 mph60%30.24 "Hg31 mi
10:00 PM44 °FOvercast.3 mph59%30.23 "Hg34 mi
9:00 PM45 °FOvercast.5 mph57%30.22 "Hg37 mi
8:00 PM45 °FOvercast.3 mph57%30.20 "Hg31 mi
7:00 PM46 °FOvercast.3 mph55%30.18 "Hg31 mi
6:00 PM47 °FOvercast.5 mph51%30.16 "Hg31 mi
5:00 PM47 °FOvercast.6 mph53%30.14 "Hg31 mi
4:00 PM48 °FOvercast.6 mph58%30.11 "Hg37 mi
3:00 PM46 °FOvercast.6 mph62%30.09 "Hg37 mi
2:00 PM45 °FOvercast.7 mph63%30.09 "Hg25 mi
1:00 PM48 °FOvercast.8 mph56%30.07 "Hg28 mi
12:00 PM47 °FSprinkles. Overcast.9 mph58%30.06 "Hg22 mi
Weather by CustomWeather, © 2015

See weather overviewHow to use our weather pages